Location: Unspecified
(42.9300°N, 71.1866°W)
Time: 16:03:19
(UTC-04:00)

Resurs 1-4 Rocket - Visible Passes

Search period start: 25 May 2017 00:00
Search period end: 04 June 2017 00:00
Orbit: 800 x 814 km, 98.5° (Epoch: 24 May)

Date Brightness Start Highest point End Pass type
(mag) Time Alt. Az. Time Alt. Az. Time Alt. Az.
25 May 2.7 02:48:37 10° NNE 02:53:49 52° E 02:57:03 22° SSE visible
25 May 3.6 04:29:15 10° NNW 04:33:17 22° WNW 04:37:19 10° WSW visible
26 May 3.5 02:24:25 10° NNE 02:29:07 31° E 02:32:13 18° SE visible
26 May 3.0 04:04:10 10° N 04:08:57 35° WNW 04:13:18 12° SW visible
27 May 4.1 02:00:36 10° NE 02:04:21 19° E 02:07:23 12° SE visible
27 May 2.3 03:39:20 10° N 03:44:32 57° WNW 03:48:29 17° SW visible
28 May 4.6 01:38:01 10° ENE 01:39:28 11° E 01:40:55 10° ESE visible
28 May 2.1 03:14:40 10° NNE 03:20:01 88° ESE 03:23:38 21° SSW visible
29 May 2.6 02:50:12 10° NNE 02:55:26 54° E 02:58:49 21° S visible
29 May 3.6 04:30:54 10° NNW 04:34:52 22° WNW 04:38:49 10° WSW visible
30 May 3.4 02:25:59 10° NNE 02:30:44 33° E 02:33:59 18° SSE visible
30 May 3.0 04:05:48 10° N 04:10:32 34° WNW 04:15:04 11° SW visible
31 May 4.1 02:02:07 10° NE 02:05:58 20° E 02:09:09 12° SE visible
31 May 2.4 03:40:57 10° N 03:46:08 55° WNW 03:50:14 16° SW visible
01 Jun 4.5 01:39:19 10° ENE 01:41:06 12° E 01:42:53 10° ESE visible
01 Jun 2.1 03:16:16 10° NNE 03:21:38 89° W 03:25:24 20° SSW visible
02 Jun 2.6 02:51:47 10° NNE 02:57:02 56° E 03:00:33 21° S visible
02 Jun 3.7 04:32:34 10° NNW 04:36:26 21° WNW 04:40:20 10° WSW visible
03 Jun 3.4 02:27:32 10° NNE 02:32:22 34° E 02:35:42 18° SSE visible
03 Jun 3.1 04:07:25 10° N 04:12:08 33° WNW 04:16:48 10° SW visible
